Location: Carri�res
(48.9069°N, 2.1792°E)
Time: 03:40:46
(UTC+00:00)

CZ-4B R/B - Pass Details

Date: 17 January 2021
Orbit: 809 x 882 km, 99.1° (Epoch: 26 February)

Event Time Altitude Azimuth Distance (km) Brightness Sun altitude
Rises 17:16:52 0° 166° (SSE) 3,393 6.4 -8.4°
Reaches altitude 10° 17:19:12 10° 167° (SSE) 2,473 5.7 -8.7°
Maximum altitude 17:24:43 81° 255° (WSW) 879 3.4 -9.6°
Drops below altitude 10° 17:30:22 10° 343° (NNW) 2,534 5.7 -10.5°
Sets 17:32:47 0° 345° (NNW) 3,483 6.4 -10.8°
